TimeCST,TemperatureF,Dew PointF,Humidity,Sea Level PressureIn,VisibilityMPH,Wind Direction,Wind SpeedMPH,Gust SpeedMPH,PrecipitationIn,Events,Conditions,WindDirDegrees,DateUTC
12:15 AM,30.2,21.2,69,29.99,10.0,NW,10.4,-,0.00,,Clear,310,2012-12-04 06:15:00
12:35 AM,30.2,21.2,69,30.01,10.0,NNW,5.8,-,0.00,,Clear,330,2012-12-04 06:35:00
12:55 AM,28.4,21.2,74,30.01,10.0,NNW,6.9,-,0.00,,Clear,340,2012-12-04 06:55:00
1:15 AM,26.6,19.4,74,30.01,10.0,NNW,9.2,-,0.00,,Clear,330,2012-12-04 07:15:00
1:35 AM,24.8,19.4,80,30.02,10.0,NW,6.9,-,0.00,,Clear,310,2012-12-04 07:35:00
1:55 AM,24.8,19.4,80,30.03,10.0,NNW,5.8,-,0.00,,Clear,330,2012-12-04 07:55:00
2:15 AM,24.8,17.6,74,30.04,10.0,North,6.9,-,0.00,,Clear,350,2012-12-04 08:15:00
2:55 AM,23.0,17.6,80,30.05,10.0,WNW,6.9,-,0.00,,Clear,300,2012-12-04 08:55:00
3:15 AM,23.0,17.6,80,30.07,10.0,WNW,4.6,-,0.00,,Clear,290,2012-12-04 09:15:00
3:35 AM,21.2,15.8,80,30.07,10.0,WNW,9.2,-,0.00,,Clear,300,2012-12-04 09:35:00
3:55 AM,23.0,15.8,74,30.08,10.0,WNW,6.9,-,0.00,,Clear,300,2012-12-04 09:55:00
4:15 AM,23.0,14.0,68,30.09,10.0,NNW,5.8,-,0.00,,Clear,340,2012-12-04 10:15:00
4:35 AM,21.2,14.0,74,30.10,10.0,NW,5.8,-,0.00,,Clear,310,2012-12-04 10:35:00
4:55 AM,21.2,12.2,68,30.10,10.0,NW,8.1,-,0.00,,Clear,320,2012-12-04 10:55:00
5:15 AM,21.2,12.2,68,30.12,10.0,NW,4.6,-,0.00,,Clear,320,2012-12-04 11:15:00
5:35 AM,21.2,12.2,68,30.13,10.0,NW,8.1,-,0.00,,Clear,320,2012-12-04 11:35:00
5:55 AM,21.2,12.2,68,30.13,10.0,NW,11.5,-,0.00,,Clear,320,2012-12-04 11:55:00
6:15 AM,19.4,12.2,74,30.14,10.0,NW,6.9,-,0.00,,Clear,320,2012-12-04 12:15:00
6:35 AM,17.6,10.4,73,30.15,10.0,NW,8.1,-,0.00,,Clear,320,2012-12-04 12:35:00
6:55 AM,17.6,12.2,79,30.16,10.0,NW,8.1,-,0.00,,Clear,310,2012-12-04 12:55:00
7:15 AM,19.4,10.4,68,30.18,10.0,NW,11.5,-,0.00,,Clear,310,2012-12-04 13:15:00
7:35 AM,19.4,12.2,74,30.19,10.0,NW,11.5,-,0.00,,Clear,320,2012-12-04 13:35:00
7:55 AM,19.4,12.2,74,30.21,10.0,NW,9.2,-,0.00,,Clear,320,2012-12-04 13:55:00
8:15 AM,19.4,12.2,74,30.21,10.0,NW,9.2,-,0.00,,Clear,310,2012-12-04 14:15:00
8:35 AM,19.4,12.2,74,30.22,10.0,WNW,11.5,-,0.00,,Clear,300,2012-12-04 14:35:00
8:55 AM,19.4,12.2,74,30.23,10.0,NW,13.8,-,0.00,,Clear,310,2012-12-04 14:55:00
9:15 AM,21.2,12.2,68,30.24,10.0,NNW,15.0,-,0.00,,Clear,330,2012-12-04 15:15:00
9:55 AM,21.2,10.4,63,30.26,10.0,NNW,15.0,-,0.00,,Clear,340,2012-12-04 15:55:00
10:15 AM,21.2,10.4,63,30.27,10.0,NNW,12.7,-,0.00,,Clear,330,2012-12-04 16:15:00
10:35 AM,21.2,10.4,63,30.27,10.0,NNW,13.8,-,0.00,,Clear,340,2012-12-04 16:35:00
10:55 AM,23.0,12.2,63,30.28,10.0,NNW,12.7,17.3,0.00,,Clear,340,2012-12-04 16:55:00
11:15 AM,23.0,10.4,59,30.28,10.0,NNW,12.7,-,0.00,,Clear,330,2012-12-04 17:15:00
11:35 AM,23.0,10.4,59,30.29,10.0,North,11.5,-,0.00,,Clear,360,2012-12-04 17:35:00
11:55 AM,24.8,10.4,54,30.28,10.0,North,9.2,-,0.00,,Clear,350,2012-12-04 17:55:00
12:15 PM,24.8,10.4,54,30.28,10.0,North,10.4,-,0.00,,Clear,350,2012-12-04 18:15:00
12:35 PM,26.6,10.4,51,30.28,10.0,North,9.2,-,0.00,,Clear,350,2012-12-04 18:35:00
12:55 PM,26.6,10.4,51,30.28,10.0,North,8.1,-,0.00,,Clear,10,2012-12-04 18:55:00
1:15 PM,26.6,10.4,51,30.28,10.0,NNW,6.9,-,0.00,,Clear,330,2012-12-04 19:15:00
1:35 PM,28.4,10.4,47,30.29,10.0,NW,5.8,-,0.00,,Clear,310,2012-12-04 19:35:00
1:55 PM,28.4,10.4,47,30.29,10.0,NNW,8.1,-,0.00,,Clear,340,2012-12-04 19:55:00
2:15 PM,28.4,10.4,47,30.29,10.0,Calm,Calm,-,0.00,,Clear,0,2012-12-04 20:15:00
2:35 PM,28.4,10.4,47,30.29,10.0,North,6.9,-,0.00,,Clear,10,2012-12-04 20:35:00
2:55 PM,28.4,10.4,47,30.29,10.0,North,4.6,-,0.00,,Clear,350,2012-12-04 20:55:00
3:15 PM,28.4,10.4,47,30.29,10.0,North,6.9,-,0.00,,Clear,10,2012-12-04 21:15:00
3:35 PM,28.4,10.4,47,30.29,10.0,NNE,8.1,-,0.00,,Clear,20,2012-12-04 21:35:00
3:55 PM,28.4,10.4,47,30.30,10.0,NNE,6.9,-,0.00,,Clear,20,2012-12-04 21:55:00
4:15 PM,26.6,10.4,51,30.31,10.0,NE,5.8,-,0.00,,Clear,40,2012-12-04 22:15:00
4:35 PM,23.0,8.6,54,30.30,10.0,NE,6.9,-,0.00,,Clear,50,2012-12-04 22:35:00
4:55 PM,21.2,8.6,58,30.30,10.0,NE,6.9,-,0.00,,Clear,50,2012-12-04 22:55:00
5:15 PM,21.2,8.6,58,30.30,10.0,NE,4.6,-,0.00,,Clear,50,2012-12-04 23:15:00
5:35 PM,21.2,8.6,58,30.31,10.0,ENE,4.6,-,0.00,,Clear,70,2012-12-04 23:35:00
5:55 PM,19.4,8.6,63,30.31,10.0,Calm,Calm,-,0.00,,Clear,0,2012-12-04 23:55:00
6:15 PM,21.2,8.6,58,30.30,10.0,Calm,Calm,-,0.00,,Clear,0,2012-12-05 00:15:00
6:35 PM,19.4,10.4,68,30.31,10.0,Calm,Calm,-,0.00,,Clear,0,2012-12-05 00:35:00
6:55 PM,19.4,8.6,63,30.31,10.0,ENE,4.6,-,0.00,,Clear,70,2012-12-05 00:55:00
7:15 PM,19.4,8.6,63,30.31,10.0,ENE,4.6,-,0.00,,Clear,70,2012-12-05 01:15:00
7:35 PM,17.6,8.6,68,30.32,10.0,ENE,5.8,-,0.00,,Clear,70,2012-12-05 01:35:00
7:55 PM,17.6,8.6,68,30.32,10.0,East,8.1,-,0.00,,Clear,80,2012-12-05 01:55:00
8:15 PM,19.4,10.4,68,30.32,10.0,East,6.9,-,0.00,,Clear,80,2012-12-05 02:15:00
8:35 PM,17.6,10.4,73,30.34,10.0,East,8.1,-,0.00,,Clear,90,2012-12-05 02:35:00
8:55 PM,17.6,10.4,73,30.34,10.0,East,5.8,-,0.00,,Clear,90,2012-12-05 02:55:00
9:15 PM,15.8,10.4,79,30.34,10.0,ESE,6.9,-,0.00,,Clear,110,2012-12-05 03:15:00
9:35 PM,15.8,10.4,79,30.34,10.0,ESE,6.9,-,0.00,,Clear,110,2012-12-05 03:35:00
9:55 PM,17.6,10.4,73,30.33,10.0,East,8.1,-,0.00,,Clear,90,2012-12-05 03:55:00
10:15 PM,17.6,10.4,73,30.33,10.0,East,8.1,-,0.00,,Clear,90,2012-12-05 04:15:00
10:35 PM,17.6,10.4,73,30.33,10.0,ESE,8.1,-,0.00,,Clear,110,2012-12-05 04:35:00
10:55 PM,17.6,12.2,79,30.32,10.0,ESE,10.4,-,0.00,,Clear,110,2012-12-05 04:55:00
11:15 PM,17.6,12.2,79,30.32,10.0,ESE,8.1,-,0.00,,Clear,120,2012-12-05 05:15:00
11:35 PM,17.6,12.2,79,30.32,10.0,East,6.9,-,0.00,,Clear,100,2012-12-05 05:35:00
11:55 PM,17.6,12.2,79,30.31,10.0,ESE,6.9,-,0.00,,Clear,110,2012-12-05 05:55:00